Flag for Switzerland Weather past 2 weeks in Chur, Graubünden, Switzerland

Now
34 °F

Light snow. Low clouds.


Feels Like: 25 °F
Forecast: 20 / 40 °F
Wind: 12 mph from Northeast

Location: Chur-Ems

Current Time: Jan 27, 2015 at 11:27:00 AM

Latest Report: Jan 27, 2015 at 10:00 AM


Visibility: 2 mi

Pressure: 30.22 "Hg

Humidity: 87%

Dew point: 30 °F

Location of ChurLocation

Historic Weather in Chur — Graph

°F

Chur temperature yesterday

Maximum temperature yesterday: 36 °F (at 2:00 PM)
Minimum temperature yesterday: 24 °F (at 8:00 AM)
Average temperature yesterday: 30 °F

Past Weeks' High & Low Weather Summary

 TemperatureHumidityPressure
High57 °F (Jan 13, 3:00 PM)96% (Jan 27, 5:00 AM)30.51 "Hg (Jan 27, 5:00 AM)
Low24 °F (Jan 26, 8:00 AM)21% (Jan 13, 2:00 PM)29.71 "Hg (Jan 16, 6:00 PM)
Average37 °F71%30.08 "Hg
* Reported Jan 12 10:00 AM — Jan 27 10:00 AM, Chur, Weather by CustomWeather, © 2014

Note: Actual official high and low records may vary slightly from our data, if they occured in-between our weather recording intervals... More about our weather records

Advertising

Chur weather history for previous 24 hours

 ConditionsComfort  
Time TempWeatherWind HumidityBarometerVisibility
10:00 AM
Jan 27
34 °FLight snow. Low clouds.12 mph87%30.22 "Hg2 mi
9:00 AM33 °FChilly.8 mph92%30.21 "HgN/A
8:00 AM32 °FChilly.3 mph94%30.22 "HgN/A
7:00 AM30 °FSnow. Low clouds.2 mph95%30.21 "Hg1 mi
6:00 AM30 °FChilly.1 mph93%30.22 "HgN/A
5:00 AM29 °FChilly.1 mph96%30.22 "HgN/A
3:00 AM30 °FChilly.2 mph91%30.24 "HgN/A
2:00 AM30 °FChilly.3 mph90%30.24 "HgN/A
1:00 AM30 °FLight snow. Low clouds.3 mph92%30.26 "Hg1 mi
12:00 AM30 °FChilly.6 mph91%30.27 "HgN/A
11:00 PM
Jan 26
30 °FChilly.5 mph87%30.27 "HgN/A
9:00 PM30 °FChilly.7 mph84%30.29 "HgN/A
8:00 PM30 °FChilly.7 mph84%30.31 "HgN/A
7:00 PM32 °FFog.7 mph70%30.30 "Hg7 mi
6:00 PM33 °FChilly.6 mph63%30.30 "HgN/A
5:00 PM33 °FChilly.8 mph60%30.30 "HgN/A
4:00 PM34 °FOvercast.6 mph50%30.30 "Hg11 mi
3:00 PM35 °FChilly.3 mph49%30.30 "HgN/A
2:00 PM36 °FChilly.6 mph41%30.31 "HgN/A
1:00 PM34 °FPassing clouds.5 mph41%30.35 "Hg12 mi
12:00 PM32 °FChilly.7 mph46%30.39 "HgN/A
11:00 AM29 °FChilly.10 mph50%30.44 "HgN/A
Weather by CustomWeather, © 2014

See weather overviewHow to use our weather pages